EW7567 Weather Reports


Display with metric or nautical units.
time (UTC)temp
F
wind
direction
speed
MPH
gust
MPH
rain 1hr
in
rain 24hr
in
rain mn
in
humidity
%
barometer
mb
20221003201403 69 122 4.0 10.0 0.00 0.00 0.00 32 1021.1
20221003195903 69 120 4.0 11.0 0.00 0.00 0.00 35 1021.3
20221003195404 69 177 3.0 10.0 0.00 0.00 0.00 34 1021.2
20221003194900 68 144 4.0 10.0 0.00 0.00 0.00 33 1021.3
20221003193900 69 71 5.0 12.0 0.00 0.00 0.00 34 1021.5
20221003193358 69 140 6.0 12.0 0.00 0.00 0.00 34 1021.5
20221003192858 69 132 5.0 12.0 0.00 0.00 0.00 36 1021.6
20221003191358 68 132 4.0 15.0 0.00 0.01 0.00 37 1021.9
20221003190354 68 132 4.0 9.0 0.00 0.01 0.00 37 1022.1
20221003185854 68 130 3.0 8.0 0.00 0.01 0.00 37 1022.1
20221003185356 68 15 3.0 8.0 0.00 0.01 0.00 37 1022.2
20221003184856 67 63 3.0 6.0 0.00 0.01 0.00 38 1022.2
20221003184356 67 173 3.0 6.0 0.00 0.01 0.00 39 1022.3
20221003183857 66 175 2.0 5.0 0.00 0.01 0.00 42 1022.3
20221003183356 65 128 2.0 4.0 0.00 0.01 0.00 41 1022.3
20221003182856 65 127 2.0 4.0 0.00 0.01 0.00 40 1022.3
20221003181852 65 128 2.0 5.0 0.00 0.01 0.00 43 1022.4
20221003181351 65 128 2.0 5.0 0.00 0.01 0.00 43 1022.4
20221003175351 65 139 3.0 9.0 0.00 0.01 0.00 45 1022.5
20221003174350 65 120 3.0 7.0 0.00 0.01 0.00 45 1022.5
20221003173852 65 90 2.0 6.0 0.00 0.01 0.00 46 1022.5
20221003173345 64 69 2.0 6.0 0.00 0.01 0.00 45 1022.5
20221003172838 64 69 2.0 6.0 0.00 0.01 0.00 47 1022.5
20221003172333 64 133 2.0 5.0 0.00 0.01 0.00 45 1022.7
20221003171826 63 132 3.0 5.0 0.00 0.01 0.00 46 1022.7
20221003171320 64 126 3.0 6.0 0.00 0.01 0.00 46 1022.7
20221003170816 64 124 2.0 6.0 0.00 0.01 0.00 44 1022.7
20221003170315 64 76 2.0 5.0 0.00 0.01 0.00 44 1022.8
20221003165813 64 72 2.0 5.0 0.00 0.01 0.00 47 1022.8
20221003165311 64 69 2.0 5.0 0.00 0.01 0.00 46 1022.9
20221003164812 64 138 1.0 5.0 0.00 0.01 0.00 47 1022.9
20221003163813 62 229 1.0 4.0 0.00 0.01 0.00 46 1022.9
20221003163310 62 229 2.0 5.0 0.00 0.01 0.00 50 1023.0
20221003162309 62 213 2.0 6.0 0.00 0.01 0.00 49 1023.0
20221003161808 62 195 2.0 5.0 0.00 0.01 0.00 50 1023.0
20221003161310 62 208 2.0 5.0 0.00 0.01 0.00 50 1023.2
20221003160306 61 223 2.0 4.0 0.00 0.01 0.00 51 1023.2
20221003154306 60 225 2.0 4.0 0.00 0.01 0.00 53 1023.2
20221003153259 60 224 1.0 3.0 0.00 0.01 0.00 55 1023.2
20221003152753 59 224 0.0 3.0 0.00 0.01 0.00 56 1023.2
20221003151741 59 224 0.0 0.0 0.00 0.01 0.00 59 1023.0
20221003151235 58 224 0.0 0.0 0.00 0.01 0.00 61 1023.0
20221003150729 58 224 0.0 0.0 0.00 0.01 0.00 62 1023.0
20221003150223 58 224 0.0 0.0 0.00 0.01 0.00 63 1022.9
20221003145214 56 224 0.0 0.0 0.00 0.01 0.00 65 1022.8
20221003144705 56 224 0.0 0.0 0.00 0.01 0.00 69 1022.7
20221003144159 55 224 0.0 0.0 0.00 0.01 0.00 71 1022.7
20221003143147 54 224 0.0 3.0 0.00 0.01 0.00 75 1022.7
20221003142640 53 224 1.0 3.0 0.00 0.01 0.00 80 1022.5
20221003141124 50 224 0.0 0.0 0.00 0.01 0.00 86 1022.4
20221003140617 50 224 0.0 2.0 0.00 0.01 0.00 87 1022.4
20221003135605 49 224 0.0 3.0 0.00 0.01 0.00 86 1022.3
20221003134049 47 224 0.0 2.0 0.00 0.01 0.00 88 1022.1
20221003133541 47 224 1.0 3.0 0.00 0.01 0.00 88 1022.1
20221003132529 46 224 0.0 3.0 0.00 0.01 0.00 90 1021.9
20221003132023 46 224 0.0 0.0 0.00 0.01 0.00 90 1021.8
20221003131517 45 224 1.0 2.0 0.00 0.01 0.00 90 1021.7
20221003131011 45 224 1.0 2.0 0.00 0.01 0.00 88 1021.6
20221003125959 47 224 0.0 0.0 0.00 0.01 0.00 86 1021.6
20221003124947 47 224 1.0 5.0 0.00 0.01 0.00 87 1021.6
20221003124441 47 224 2.0 5.0 0.00 0.01 0.00 89 1021.6
20221003123935 47 224 1.0 5.0 0.00 0.01 0.00 90 1021.8
20221003122923 46 221 0.0 0.0 0.00 0.01 0.00 89 1021.6
20221003121911 46 221 0.0 0.0 0.00 0.01 0.00 90 1021.5
20221003121405 46 221 0.0 0.0 0.00 0.01 0.00 90 1021.5
20221003120859 46 221 0.0 0.0 0.00 0.01 0.00 90 1021.5
20221003115848 46 221 0.0 0.0 0.00 0.01 0.00 90 1021.3
20221003114835 46 221 0.0 0.0 0.00 0.01 0.00 89 1021.2
20221003113823 46 221 0.0 0.0 0.00 0.01 0.00 90 1021.2
20221003113317 45 221 0.0 0.0 0.00 0.01 0.00 89 1021.2
20221003112811 46 221 0.0 0.0 0.00 0.01 0.00 89 1021.2
20221003112305 46 221 0.0 0.0 0.00 0.01 0.00 88 1021.1
20221003111759 46 221 0.0 0.0 0.00 0.01 0.00 88 1021.1
20221003111253 46 221 0.0 0.0 0.00 0.01 0.00 89 1021.1
20221003110747 46 221 0.0 0.0 0.00 0.01 0.00 89 1021.2
20221003110241 46 221 0.0 0.0 0.00 0.01 0.00 89 1021.2
20221003105735 46 221 0.0 0.0 0.00 0.01 0.00 89 1021.1
20221003105229 46 221 0.0 0.0 0.00 0.01 0.00 89 1021.2
20221003104722 46 221 0.0 0.0 0.00 0.01 0.00 89 1021.2
20221003104217 46 221 0.0 0.0 0.00 0.01 0.00 89 1021.2
20221003103711 46 221 0.0 0.0 0.00 0.01 0.00 89 1021.2
20221003102659 46 221 0.0 0.0 0.00 0.01 0.00 90 1021.2
20221003102154 46 221 0.0 0.0 0.00 0.01 0.00 89 1021.0
20221003101647 47 221 0.0 0.0 0.00 0.01 0.00 89 1021.1
20221003101141 47 221 0.0 0.0 0.00 0.01 0.00 89 1021.1
20221003100635 47 221 0.0 0.0 0.00 0.01 0.00 89 1021.1
20221003095623 47 221 0.0 2.0 0.00 0.01 0.00 90 1021.1
20221003095117 47 221 0.0 2.0 0.00 0.01 0.00 89 1021.2
20221003094611 47 221 0.0 2.0 0.00 0.01 0.00 90 1021.2
20221003094105 47 221 0.0 2.0 0.00 0.01 0.00 89 1021.2
20221003093559 47 221 0.0 2.0 0.00 0.01 0.00 89 1021.3
20221003093053 47 221 0.0 1.0 0.00 0.01 0.00 89 1021.3
20221003092041 47 221 0.0 2.0 0.00 0.01 0.00 89 1021.2
20221003091535 47 221 0.0 1.0 0.00 0.01 0.00 88 1021.2
20221003091030 47 221 0.0 1.0 0.00 0.01 0.00 88 1021.1
20221003090523 47 221 0.0 2.0 0.00 0.01 0.00 88 1021.2
20221003090017 47 221 0.0 2.0 0.00 0.01 0.00 87 1021.3
20221003085511 47 221 0.0 1.0 0.00 0.01 0.00 86 1021.5
20221003085005 47 221 0.0 1.0 0.00 0.01 0.00 86 1021.5
20221003084459 48 221 0.0 1.0 0.00 0.01 0.00 86 1021.6
20221003083953 48 221 0.0 2.0 0.00 0.01 0.00 85 1021.6
20221003083447 48 221 0.0 2.0 0.00 0.01 0.00 85 1021.6
20221003082941 48 221 0.0 2.0 0.00 0.01 0.00 84 1021.6
20221003082441 48 221 0.0 2.0 0.00 0.01 0.00 83 1021.6
20221003081943 48 221 0.0 2.0 0.00 0.01 0.00 83 1021.6
20221003081440 48 221 1.0 2.0 0.00 0.01 0.00 82 1021.6
20221003080938 49 221 1.0 2.0 0.00 0.01 0.00 81 1021.5
20221003080436 49 221 0.0 0.0 0.00 0.01 0.00 80 1021.6
20221003075936 49 221 0.0 0.0 0.00 0.01 0.00 80 1021.6
20221003075436 50 221 0.0 0.0 0.00 0.01 0.00 79 1021.6
20221003074936 50 221 0.0 0.0 0.00 0.01 0.00 78 1021.6
20221003074435 51 221 0.0 2.0 0.00 0.01 0.00 77 1021.6
20221003073936 51 221 0.0 3.0 0.00 0.01 0.00 76 1021.6
20221003072935 52 221 2.0 3.0 0.00 0.01 0.00 74 1021.6
20221003071933 52 221 0.0 2.0 0.00 0.01 0.00 75 1021.7
20221003071433 52 221 0.0 0.0 0.00 0.01 0.00 75 1021.8
20221003070933 52 221 0.0 0.0 0.00 0.01 0.00 75 1021.8
20221003070433 51 221 0.0 0.0 0.00 0.01 0.00 75 1021.8
20221003065933 51 221 0.0 0.0 0.00 0.01 0.00 76 1021.7
20221003065436 51 221 0.0 0.0 0.00 0.01 0.00 77 1021.6
20221003064436 50 221 0.0 0.0 0.00 0.01 0.00 78 1021.6
20221003063936 50 221 0.0 0.0 0.00 0.01 0.00 78 1021.6
20221003063431 50 221 0.0 0.0 0.00 0.01 0.00 78 1021.6
20221003062930 50 221 0.0 0.0 0.00 0.01 0.00 78 1021.6
20221003061929 50 221 0.0 0.0 0.00 0.01 0.00 79 1021.6
20221003061428 50 221 0.0 0.0 0.00 0.01 0.00 79 1021.6
20221003060928 50 221 0.0 0.0 0.00 0.01 0.00 78 1021.6
20221003060427 51 221 0.0 0.0 0.00 0.01 0.00 77 1021.6
20221003055928 51 221 0.0 0.0 0.00 0.01 0.01 77 1021.6
20221003055428 51 221 0.0 0.0 0.00 0.01 0.01 77 1021.7
20221003054424 51 221 0.0 0.0 0.00 0.01 0.01 76 1021.7
20221003053923 51 221 0.0 0.0 0.00 0.01 0.01 76 1021.7
20221003053424 52 221 0.0 0.0 0.00 0.01 0.01 74 1021.7
20221003052924 52 221 0.0 0.0 0.00 0.01 0.01 73 1021.6
20221003052425 53 221 1.0 2.0 0.00 0.01 0.01 72 1021.6
20221003051923 53 221 1.0 2.0 0.00 0.01 0.01 71 1021.6
20221003051423 54 221 1.0 2.0 0.00 0.01 0.01 70 1021.7
20221003050925 54 221 1.0 2.0 0.00 0.01 0.01 69 1021.7
20221003050418 54 221 1.0 2.0 0.00 0.01 0.01 67 1021.7
20221003045912 55 221 2.0 3.0 0.00 0.01 0.01 66 1021.7
20221003045406 55 221 2.0 4.0 0.00 0.01 0.01 65 1021.7
20221003044900 56 221 2.0 4.0 0.00 0.01 0.01 64 1021.7
20221003044354 56 221 2.0 4.0 0.00 0.01 0.01 63 1021.7
20221003043848 56 221 2.0 4.0 0.00 0.01 0.01 62 1021.7
20221003042331 56 221 2.0 4.0 0.00 0.01 0.01 61 1021.8
20221003041825 56 221 2.0 6.0 0.00 0.01 0.01 61 1021.9
20221003041318 56 221 2.0 6.0 0.00 0.01 0.01 61 1021.9
20221003040812 56 197 1.0 5.0 0.00 0.01 0.01 62 1021.8
20221003040306 56 196 1.0 5.0 0.00 0.01 0.01 62 1021.8
20221003035800 56 194 1.0 3.0 0.00 0.01 0.01 63 1021.7
20221003035254 56 194 1.0 3.0 0.00 0.01 0.01 62 1021.6
20221003034748 56 194 1.0 3.0 0.00 0.01 0.01 62 1021.6
20221003034243 56 194 2.0 3.0 0.00 0.01 0.01 62 1021.5
20221003033736 56 194 2.0 3.0 0.00 0.01 0.01 62 1021.5
20221003033230 57 194 1.0 3.0 0.00 0.01 0.01 62 1021.5
20221003032725 57 194 2.0 4.0 0.00 0.01 0.01 61 1021.5
20221003032218 57 194 2.0 6.0 0.00 0.01 0.01 62 1021.6
20221003031712 57 192 2.0 6.0 0.00 0.01 0.01 62 1021.5
20221003030700 56 196 2.0 6.0 0.00 0.01 0.01 62 1021.5
20221003030154 56 196 2.0 4.0 0.00 0.01 0.01 62 1021.5
20221003025649 56 196 3.0 4.0 0.00 0.01 0.01 62 1021.2
20221003025142 56 196 2.0 4.0 0.00 0.01 0.01 62 1021.2
20221003024636 56 196 2.0 5.0 0.00 0.01 0.01 62 1021.1
20221003024130 56 196 2.0 5.0 0.00 0.01 0.01 62 1021.1
20221003023624 57 197 1.0 4.0 0.00 0.01 0.01 62 1021.2
20221003023118 57 196 1.0 7.0 0.00 0.01 0.01 61 1021.1
20221003022106 57 198 3.0 7.0 0.00 0.01 0.01 60 1021.1
20221003021600 58 198 3.0 8.0 0.00 0.01 0.01 60 1021.1
20221003021054 58 159 4.0 8.0 0.00 0.01 0.01 60 1021.0
20221003020548 58 150 4.0 8.0 0.00 0.01 0.01 60 1020.8
20221003020042 58 173 3.0 9.0 0.00 0.01 0.01 59 1021.0
20221003015536 58 144 4.0 10.0 0.00 0.01 0.01 59 1021.0
20221003015030 58 169 5.0 10.0 0.00 0.01 0.01 58 1020.8
20221003014524 58 136 5.0 10.0 0.00 0.01 0.01 58 1021.0
20221003014018 59 186 6.0 13.0 0.00 0.01 0.01 58 1020.8
20221003013512 59 146 7.0 13.0 0.00 0.01 0.01 58 1020.8
20221003013006 59 140 7.0 13.0 0.00 0.01 0.01 57 1020.7
20221003012500 59 138 6.0 11.0 0.00 0.01 0.01 57 1020.7
20221003011954 60 140 7.0 11.0 0.00 0.01 0.01 56 1020.7
20221003011448 60 145 7.0 15.0 0.00 0.01 0.01 56 1020.7
20221003010942 60 171 7.0 15.0 0.00 0.01 0.01 55 1020.7
20221003010436 61 136 7.0 13.0 0.00 0.01 0.01 54 1020.6
20221003005930 61 126 7.0 13.0 0.00 0.01 0.01 53 1020.5
20221003005424 61 136 7.0 15.0 0.00 0.01 0.01 52 1020.5
20221003004918 62 148 7.0 15.0 0.00 0.01 0.01 51 1020.5
20221003004412 62 128 7.0 13.0 0.00 0.01 0.01 49 1020.5
20221003003907 62 146 7.0 13.0 0.00 0.01 0.01 48 1020.5
20221003003400 63 132 7.0 12.0 0.00 0.01 0.01 48 1020.4
20221003001336 64 133 7.0 15.0 0.00 0.01 0.01 45 1020.1
20221003000830 64 140 7.0 16.0 0.00 0.01 0.01 44 1020.1
20221002235818 64 145 9.0 17.0 0.00 0.01 0.01 44 1020.0
20221002235312 64 120 8.0 17.0 0.00 0.01 0.01 44 1019.9
20221002234806 64 134 7.0 14.0 0.00 0.01 0.01 44 1020.0
20221002234301 65 133 8.0 16.0 0.00 0.01 0.01 44 1020.0
20221002233757 65 142 9.0 18.0 0.00 0.01 0.01 43 1020.0
20221002232742 66 100 10.0 17.0 0.00 0.01 0.01 40 1020.0
20221002231730 67 157 10.0 18.0 0.00 0.01 0.01 39 1020.1
20221002230718 67 136 10.0 14.0 0.00 0.01 0.01 39 1020.1
20221002230212 68 130 9.0 15.0 0.00 0.01 0.01 38 1020.0
20221002225706 68 144 9.0 15.0 0.00 0.01 0.01 38 1020.1
20221002225201 69 134 8.0 14.0 0.00 0.01 0.01 37 1020.0
20221002224653 69 132 7.0 12.0 0.00 0.01 0.01 37 1020.1
20221002224148 69 167 7.0 12.0 0.00 0.01 0.01 38 1020.1
20221002223642 69 140 6.0 10.0 0.00 0.01 0.01 37 1020.1
20221002223137 70 155 7.0 13.0 0.00 0.01 0.01 37 1020.1
20221002222630 69 154 8.0 16.0 0.00 0.01 0.01 37 1020.1
20221002221618 69 138 9.0 16.0 0.00 0.01 0.01 38 1020.2
20221002221112 69 136 9.0 16.0 0.00 0.01 0.01 38 1020.4
20221002220606 69 138 7.0 14.0 0.00 0.01 0.01 38 1020.4
20221002220100 69 130 7.0 14.0 0.00 0.01 0.01 38 1020.4
20221002215554 70 153 6.0 13.0 0.00 0.01 0.01 37 1020.4
20221002215049 70 128 4.0 10.0 0.00 0.01 0.01 36 1020.4
20221002214036 68 143 5.0 11.0 0.00 0.01 0.01 39 1020.5
20221002213024 68 186 4.0 9.0 0.00 0.01 0.01 37 1020.6
20221002212518 68 188 4.0 9.0 0.00 0.01 0.01 38 1020.5
20221002212011 68 198 5.0 11.0 0.00 0.01 0.01 38 1020.5
20221002211506 68 191 5.0 11.0 0.00 0.01 0.01 38 1020.4
20221002211003 69 123 5.0 12.0 0.00 0.01 0.01 39 1020.4
20221002210502 69 132 6.0 12.0 0.00 0.01 0.01 38 1020.5
20221002205458 69 164 5.0 13.0 0.00 0.01 0.01 38 1020.6
20221002204957 69 155 5.0 13.0 0.00 0.01 0.01 39 1020.7
20221002203957 68 130 6.0 15.0 0.00 0.01 0.01 41 1020.8
20221002203500 67 118 5.0 11.0 0.00 0.01 0.01 42 1020.8
20221002202458 67 135 6.0 13.0 0.00 0.01 0.01 42 1021.0